Location: Casa del Quejigal
(40.4571°N, 4.3521°W)
Time: 08:01:48
(UTC+00:00)

Daily predictions for brighter satellites

Satellite Brightness Start Highest point End
(mag) Time Altitude Azimuth Time Altitude Azimuth Time Altitude Azimuth
Cosmos 1238 Rocket 3.8 19:53:22 10° S 19:58:33 83° W 20:04:19 10° N
BREEZE-M DEB (TANK) 3.0 19:57:05 10° SW 20:00:03 56° SE 20:05:29 10° ENE
Cosmos 2151 3.4 19:56:38 10° NNW 20:00:44 64° W 20:04:49 10° S
ATLAS 3B R/B 4.1 19:54:58 10° NNW 20:01:54 33° NE 20:08:46 10° ESE
Cosmos 1980 3.7 19:57:51 10° SSW 20:03:30 88° ESE 20:09:11 10° NNE
SPOT 5 4.3 20:03:05 10° ESE 20:06:30 20° ENE 20:09:50 10° NNE
Cosmos 1812 3.5 20:05:34 10° SSW 20:09:03 51° W 20:12:33 10° N
Cosmos 1464 Rocket 4.4 20:08:23 10° N 20:14:26 46° ENE 20:20:22 10° SSE
Okean O Rocket 1.6 20:10:33 10° SSE 20:14:56 72° ENE 20:19:22 10° N
Terra 3.8 20:14:44 10° E 20:17:15 14° ENE 20:19:46 10° NNE
ATLAS 2AS CENTAUR R/B 3.2 20:14:57 10° SW 20:22:22 71° NW 20:29:33 10° NNE
ERS-1 Rocket 4.5 20:18:58 10° ESE 20:22:38 21° ENE 20:26:19 10° NNE
Cosmos 1782 2.6 20:23:36 10° S 20:27:22 72° E 20:31:11 10° NNE
Intercosmos 24 4.3 20:29:08 10° SSW 20:32:40 64° W 20:37:00 10° N
Cosmos 1943 Rocket 2.2 20:30:19 10° NNW 20:36:00 79° ENE 20:41:02 13° SSE
CZ-4B R/B 4.1 20:32:25 10° S 20:37:35 47° W 20:42:44 10° NNW
Cosmos 972 4.3 20:32:43 10° S 20:37:36 67° ESE 20:42:28 10° NNE
ISS -0.8 20:36:40 10° NNW 20:38:06 12° N 20:39:32 10° NNE
Cosmos 2278 Rocket 2.8 20:35:15 10° NNW 20:40:47 55° WSW 20:46:16 10° S
NOSS 3-1 (A) 4.5 20:33:39 10° NNW 20:40:59 56° NE 20:48:11 16° SE
OAO 2 Rocket 3.8 20:36:20 10° WSW 20:41:23 47° S 20:45:09 17° ESE
NOSS 3-1 (C) 4.2 20:33:44 10° NW 20:41:23 89° SW 20:49:24 14° SSE
USA 245 4.5 20:42:40 11° ENE 20:42:40 11° ENE 20:43:19 10° NE
Meteor 1-25 Rocket 4.3 20:37:05 10° N 20:42:42 84° W 20:48:21 10° S
SL-24 R/B - RUBIN 2 4.4 20:37:04 10° SSW 20:42:56 66° ESE 20:49:27 10° NE
Cosmos 2112 Rocket 4.2 20:41:50 10° S 20:46:57 50° ESE 20:52:05 10° NNE
Okean-O 2.6 20:45:51 13° SSE 20:49:44 87° E 20:54:10 10° NNW
USA 290 3.1 20:49:25 10° N 20:52:24 34° ENE 20:53:34 25° ESE
Cosmos-2242 4.0 20:49:21 10° SSW 20:53:22 46° W 20:57:28 10° N
Spot 2 Rocket 4.4 20:54:06 19° ESE 20:56:48 32° ENE 21:01:13 10° N
Cosmos 1680 Rocket 3.4 20:51:53 10° S 20:57:10 75° ESE 21:02:26 10° NNE
Cosmos 2034 Rocket 4.0 20:52:05 10° N 20:58:17 69° E 21:03:13 17° SSE
Cosmos 1816 Rocket 4.5 20:55:35 10° S 21:01:46 89° W 21:08:04 10° N
USA 32 4.5 21:01:10 22° SSE 21:04:09 43° E 21:09:03 10° NNE
Gbstr 26 Del rocket 3.7 20:59:24 10° WNW 21:05:29 66° SW 21:08:23 25° SSE
Cosmos 1515 4.5 21:02:32 10° SSW 21:05:54 46° W 21:09:16 10° N
Cosmos 1933 4.2 21:02:18 10° SSW 21:06:07 49° W 21:09:59 10° N
Tsikada Rocket 4.0 21:00:58 13° S 21:06:21 62° E 21:12:29 10° NNE
SL-16 R/B 2.2 21:06:49 10° SSW 21:12:28 90° E 21:18:11 10° NNE
CZ-4C R/B 4.2 21:09:33 10° N 21:13:09 47° WNW 21:16:53 10° SSW
MetOp-B 4.2 21:11:57 20° S 21:15:47 82° WSW 21:21:11 10° NNW
MOS 1 Rocket 4.3 21:13:56 26° ESE 21:16:00 36° ENE 21:20:43 10° N
Lacrosse 5 rocket 3.3 21:14:53 10° WSW 21:18:47 33° NW 21:22:39 10° NNE
Ariane Rocket 3.3 21:16:50 29° SE 21:19:07 50° ENE 21:24:01 10° N
Lacrosse 5 2.0 21:15:36 10° NW 21:20:43 71° NE 21:23:08 31° ESE
Cosmos 2056 Rocket 3.7 21:15:39 10° NNW 21:21:00 63° ENE 21:23:29 31° SE
IRS-1C Rocket 4.1 21:17:46 22° S 21:21:13 81° WSW 21:26:31 10° NNW
Cosmos 1624 Rocket 4.1 21:18:10 10° NNW 21:23:20 64° ENE 21:25:36 33° SE
Cosmos 44 3.6 21:20:21 10° NNW 21:25:04 52° NE 21:26:45 34° ESE
Cosmos 2221 2.5 21:22:26 21° S 21:25:14 85° W 21:29:36 10° N
Spot 1 4.5 21:23:36 10° NNE 21:27:22 37° E 21:27:36 37° ESE
Resurs 01 Rocket 4.2 21:27:14 10° SW 21:29:47 15° W 21:32:21 10° NW
Cosmos 2369 Rocket 2.7 21:24:48 10° NNW 21:30:09 44° ENE 21:32:23 30° ESE
USA 308 3.0 21:28:14 10° WNW 21:30:57 35° SW 21:31:01 35° SW
ATLAS 5 CENTAUR R/B 4.5 21:27:32 10° WNW 21:31:05 17° WSW 21:35:01 10° SSW
FALCON 9 R/B 3.4 21:27:15 10° WSW 21:32:40 60° S 21:51:39 10° ESE
Cosmos 2084 4.0 21:29:36 10° NNW 21:33:07 36° NE 21:33:53 32° ENE
Cosmos 921 Rocket 3.0 21:37:33 25° SSW 21:40:09 84° WNW 21:44:40 10° NNE
Landsat 4 3.6 21:42:40 58° SSW 21:43:10 69° WSW 21:46:40 10° NNW
SPOT 5 3.8 21:41:27 20° SSW 21:44:17 39° W 21:48:33 10° NNW
Okean 3 Rocket 3.6 21:43:11 10° N 21:47:32 56° E 21:48:05 52° ESE
GEOS 3 Rocket 4.1 21:44:08 10° NNE 21:49:13 59° NW 21:54:13 10° SW
SL-8 R/B 3.5 21:47:02 10° SW 21:51:46 79° SSE 21:56:33 10° ENE
ARGOS Delta rocket 4.3 21:49:27 31° SSW 21:51:52 61° W 21:56:48 10° NNW
ATLAS 3B R/B 3.1 21:45:29 10° NW 21:53:17 70° WSW 21:57:02 33° SSE
Terra 2.1 21:52:38 38° SSW 21:54:18 62° W 21:58:59 10° NNW
Landsat 5 3.1 21:51:18 10° NNE 21:54:55 69° E 21:54:55 69° E
Aureole 3 Rocket 3.8 21:51:34 10° NNW 21:55:18 48° W 21:57:21 29° SSW
Cosmos 1943 3.2 21:53:56 40° S 21:55:50 63° ESE 22:01:27 10° NNE
Cosmos 1048 Rocket 3.8 21:59:00 48° S 22:00:23 73° ESE 22:05:31 10° NNE
ERS-1 Rocket 3.7 21:58:51 29° SSW 22:01:02 46° W 22:05:53 10° NNW
Cosmos 1842 Rocket 3.6 22:01:42 54° SSW 22:02:40 80° W 22:07:08 10° N
Cosmos 494 Rocket 4.0 22:00:56 29° SSW 22:03:35 76° WNW 22:08:42 10° NNE
Meteor 1-10 Rocket 4.2 22:02:23 46° SSE 22:04:08 72° E 22:09:49 10° NNE
SPOT 3 Rocket 3.7 22:04:43 42° SSW 22:06:20 65° WSW 22:11:27 10° NNW
Cosmos 1656 Rocket 3.7 22:01:51 10° NNW 22:07:18 71° WSW 22:08:45 48° S
Meteor 1-19 Rocket 4.5 22:14:07 50° SE 22:14:59 54° E 22:20:40 10° NNE
Cosmos 1743 3.9 22:12:18 10° NNW 22:15:33 31° W 22:15:46 31° W
ISS -1.4 22:13:22 10° NNW 22:15:46 18° NNE 22:16:33 17° NE
ARIANE 5 R/B 3.9 22:16:04 27° ENE 22:16:04 27° ENE 22:19:35 10° N
Cosmos 1340 Rocket 4.3 22:17:22 27° NE 22:17:22 27° NE 22:19:40 10° NNE
USA 281 3.2 22:14:24 44° SSE 22:16:43 80° WSW 22:23:21 10° NNW
Meteor 1-11 Rocket 3.7 22:11:34 10° N 22:17:12 67° E 22:18:13 55° SE
Meteor 2-10 4.4 22:13:39 10° N 22:19:04 50° ENE 22:19:41 47° E
USA 59 Rocket 2.7 22:19:30 10° NNE 22:20:56 11° NE 22:22:29 10° ENE
Cosmos 1331 Rocket 4.1 22:17:31 10° N 22:22:41 57° ENE 22:23:13 54° E
Cosmos 1110 Rocket 4.0 22:19:20 10° NNW 22:24:37 65° ENE 22:25:12 60° ESE
CZ-2C R/B 4.3 22:23:51 10° NNE 22:27:22 43° ENE 22:27:22 43° ENE
Nadezhda 4 Rocket 3.9 22:30:39 58° SSE 22:31:43 70° E 22:37:54 10° NNE
Cosmos 2297 4.4 22:26:41 10° NW 22:32:04 43° WSW 22:33:19 37° SW
Cosmos 1726 3.6 22:29:17 10° NNW 22:31:07 29° NW 22:31:07 29° NW
Cosmos 2279 Rocket 4.2 22:27:31 10° NNW 22:33:38 63° W 22:35:28 44° SSW
Molniya-1 3.7 22:35:27 86° S 22:35:31 88° ESE 22:43:12 10° NE
USA 229 DEB 4.0 22:39:26 10° NW 22:47:01 74° WSW 22:49:11 52° S
USA 229 4.0 22:39:32 10° NW 22:47:07 75° WSW 22:49:18 52° S
Cosmos 1743 Rocket 3.9 22:44:12 10° N 22:47:56 63° N 22:47:56 63° N
Sich 1 3.4 22:48:54 10° N 22:52:35 61° NNW 22:52:35 61° NNW
Cosmos 1536 4.3 22:54:45 10° NNW 22:57:32 31° WNW 22:57:32 31° WNW
Cosmos 1975 4.4 22:54:49 10° N 22:57:09 29° NNE 22:57:09 29° NNE
Cosmos 1603 4.0 22:57:29 48° WSW 22:58:54 63° WNW 23:04:33 10° NNE
Lacrosse 5 3.8 22:59:42 10° WNW 23:02:19 18° WSW 23:02:19 18° WSW
Meteor 1-27 Rocket 4.1 23:04:40 47° WSW 23:05:36 53° WNW 23:11:01 10° N
Cosmos 1627 Rocket 4.5 23:05:12 65° ESE 23:05:38 67° E 23:11:55 10° NNE
Cosmos 1452 Rocket 4.0 23:02:08 10° NNW 23:07:02 50° W 23:07:02 50° W
USA 267 3.1 23:03:34 10° NE 23:10:06 71° SE 23:10:42 67° S
Cosmos 2026 Rocket 3.9 23:12:23 73° SE 23:12:50 78° E 23:19:08 10° N
Cosmos 2369 Rocket 3.6 23:09:23 10° NW 23:13:51 25° WSW 23:14:10 25° WSW
Meteor 1-18 Rocket 4.2 23:33:57 87° W 23:33:57 87° W 23:39:56 10° N
ALOS 2 3.6 23:36:13 44° NNE 23:36:13 44° NNE 23:39:24 10° N
Spot 4 4.3 23:37:28 58° NNW 23:37:28 58° NNW 23:41:18 10° NNW
H-2A R/B 3.9 23:38:30 35° NW 23:38:30 35° NW 23:41:06 10° NNW
Cosmos 1553 Rocket 4.1 23:33:33 10° N 23:39:32 57° E 23:39:39 57° E
Meteor 2-4 Rocket 4.0 23:42:30 60° W 23:42:47 61° WNW 23:48:39 10° N
USA 234 4.3 23:38:50 13° E 23:44:10 41° NNE 23:50:12 10° NW
Lacrosse 4 Rocket 3.2 23:43:45 10° N 23:46:28 26° NNE 23:46:28 26° NNE
Cosmos 1818 4.0 23:53:37 54° NE 23:53:37 54° NE 23:57:56 10° NE
